| time (UTC) | temp F | wind direction | speed MPH | gust MPH | rain 1hr in | rain 24hr in | rain mn in | humidity % | barometer mb |
| 20260906064539 | 71 | 36 | 3.0 | 6.0 | 0.00 | 0.40 | 0.00 | 95 | 1014.2 |
| 20260906063036 | 71 | 30 | 2.0 | 4.0 | 0.00 | 0.40 | 0.00 | 95 | 1014.2 |
| 20260906061538 | 71 | 29 | 2.0 | 5.0 | 0.00 | 0.40 | 0.00 | 95 | 1014.2 |
| 20260906060037 | 71 | 35 | 2.0 | 5.0 | 0.00 | 0.40 | 0.00 | 95 | 1014.3 |
| 20260906054554 | 71 | 23 | 2.0 | 5.0 | 0.00 | 0.40 | 0.00 | 95 | 1014.3 |
| 20260906053037 | 71 | 18 | 2.0 | 4.0 | 0.00 | 0.40 | 0.00 | 95 | 1014.1 |
| 20260906051554 | 71 | 16 | 1.0 | 4.0 | 0.00 | 0.40 | 0.00 | 94 | 1014.2 |
| 20260906050044 | 70 | 15 | 1.0 | 3.0 | 0.00 | 0.40 | 0.00 | 94 | 1014.1 |
| 20260906044548 | 70 | 0 | 0.0 | 3.0 | 0.00 | 0.40 | 0.00 | 94 | 1014.0 |
| 20260906043035 | 70 | 15 | 0.0 | 3.0 | 0.00 | 0.40 | 0.00 | 94 | 1013.8 |
| 20260906041536 | 70 | 0 | 0.0 | 3.0 | 0.00 | 0.40 | 0.00 | 94 | 1013.6 |
| 20260906040106 | 70 | 13 | 2.0 | 8.0 | 0.00 | 0.40 | 0.00 | 94 | 1013.6 |
| 20260906034536 | 70 | 51 | 1.0 | 3.0 | 0.00 | 0.40 | 0.40 | 93 | 1013.5 |
| 20260906033051 | 70 | 51 | 1.0 | 4.0 | 0.00 | 0.40 | 0.40 | 93 | 1013.5 |
| 20260906031535 | 70 | 52 | 1.0 | 4.0 | 0.00 | 0.40 | 0.40 | 93 | 1013.5 |
| 20260906030037 | 70 | 52 | 1.0 | 4.0 | 0.00 | 0.40 | 0.40 | 93 | 1013.7 |
| 20260906024541 | 70 | 55 | 1.0 | 4.0 | 0.00 | 0.40 | 0.40 | 93 | 1013.5 |
| 20260906023037 | 70 | 207 | 0.0 | 3.0 | 0.00 | 0.40 | 0.40 | 93 | 1013.6 |
| 20260906021538 | 70 | 205 | 1.0 | 3.0 | 0.00 | 0.40 | 0.40 | 93 | 1013.6 |
| 20260906020037 | 70 | 0 | 0.0 | 1.0 | 0.00 | 0.40 | 0.40 | 93 | 1013.7 |
| 20260906014537 | 70 | 0 | 0.0 | 4.0 | 0.01 | 0.40 | 0.40 | 92 | 1013.4 |
| 20260906013036 | 70 | 47 | 0.0 | 4.0 | 0.01 | 0.40 | 0.40 | 91 | 1013.5 |
| 20260906011538 | 70 | 44 | 4.0 | 6.0 | 0.26 | 0.40 | 0.40 | 91 | 1013.4 |
| 20260906010036 | 71 | 0 | 0.0 | 2.0 | 0.26 | 0.40 | 0.40 | 88 | 1012.9 |
| 20260906004537 | 72 | 0 | 1.0 | 15.0 | 0.25 | 0.39 | 0.39 | 86 | 1013.0 |
| 20260906003037 | 72 | 76 | 17.0 | 32.0 | 0.25 | 0.39 | 0.39 | 87 | 1012.9 |
| 20260906001539 | 81 | 31 | 7.0 | 24.0 | 0.00 | 0.14 | 0.14 | 74 | 1012.8 |
| 20260906000038 | 82 | 210 | 0.0 | 1.0 | 0.00 | 0.14 | 0.14 | 81 | 1011.5 |
| 20260905234537 | 82 | 0 | 0.0 | 1.0 | 0.00 | 0.14 | 0.14 | 83 | 1012.0 |
| 20260905233035 | 84 | 0 | 0.0 | 0.0 | 0.00 | 0.14 | 0.14 | 78 | 1012.0 |
| 20260905231538 | 82 | 0 | 0.0 | 1.0 | 0.00 | 0.14 | 0.14 | 80 | 1012.2 |
| 20260905230037 | 84 | 0 | 0.0 | 1.0 | 0.00 | 0.14 | 0.14 | 78 | 1012.0 |
| 20260905224607 | 85 | 0 | 0.0 | 0.0 | 0.00 | 0.14 | 0.14 | 74 | 1012.0 |
| 20260905223044 | 87 | 0 | 0.0 | 2.0 | 0.00 | 0.14 | 0.14 | 69 | 1011.9 |
| 20260905221539 | 88 | 0 | 0.0 | 1.0 | 0.00 | 0.14 | 0.14 | 66 | 1012.1 |
| 20260905220035 | 89 | 0 | 0.0 | 2.0 | 0.00 | 0.14 | 0.14 | 65 | 1011.8 |
| 20260905214544 | 90 | 0 | 1.0 | 7.0 | 0.00 | 0.14 | 0.14 | 63 | 1011.6 |
| 20260905213035 | 89 | 0 | 0.0 | 5.0 | 0.00 | 0.14 | 0.14 | 64 | 1011.9 |
| 20260905211544 | 91 | 217 | 1.0 | 4.0 | 0.00 | 0.14 | 0.14 | 64 | 1011.9 |
| 20260905210043 | 90 | 285 | 1.0 | 4.0 | 0.00 | 0.14 | 0.14 | 64 | 1012.2 |
| 20260905204540 | 90 | 0 | 0.0 | 7.0 | 0.00 | 0.14 | 0.14 | 62 | 1012.1 |
| 20260905203038 | 90 | 305 | 0.0 | 4.0 | 0.00 | 0.14 | 0.14 | 62 | 1012.2 |
| 20260905201537 | 90 | 5 | 1.0 | 4.0 | 0.00 | 0.14 | 0.14 | 63 | 1012.5 |
| 20260905200039 | 91 | 0 | 0.0 | 8.0 | 0.00 | 0.14 | 0.14 | 61 | 1012.7 |
| 20260905194541 | 91 | 0 | 1.0 | 7.0 | 0.00 | 0.14 | 0.14 | 59 | 1013.0 |
| 20260905193035 | 90 | 231 | 1.0 | 5.0 | 0.00 | 0.14 | 0.14 | 60 | 1013.1 |
| 20260905191537 | 90 | 233 | 3.0 | 9.0 | 0.00 | 0.14 | 0.14 | 59 | 1013.2 |
| 20260905190034 | 90 | 0 | 0.0 | 12.0 | 0.00 | 0.14 | 0.14 | 59 | 1013.5 |
| 20260905184547 | 91 | 0 | 0.0 | 11.0 | 0.00 | 0.14 | 0.14 | 63 | 1013.7 |
| 20260905183038 | 90 | 0 | 0.0 | 11.0 | 0.00 | 0.14 | 0.14 | 61 | 1013.8 |
| 20260905181536 | 89 | 210 | 1.0 | 9.0 | 0.00 | 0.14 | 0.14 | 63 | 1013.7 |
| 20260905180042 | 89 | 240 | 2.0 | 9.0 | 0.00 | 0.14 | 0.14 | 61 | 1013.7 |
| 20260905174539 | 88 | 245 | 3.0 | 9.0 | 0.00 | 0.14 | 0.14 | 63 | 1013.8 |
| 20260905173054 | 87 | 235 | 2.0 | 9.0 | 0.00 | 0.14 | 0.14 | 66 | 1013.9 |
| 20260905171535 | 86 | 233 | 1.0 | 7.0 | 0.00 | 0.14 | 0.14 | 63 | 1014.2 |
| 20260905170040 | 86 | 211 | 2.0 | 10.0 | 0.00 | 0.14 | 0.14 | 64 | 1014.5 |
| 20260905164538 | 85 | 267 | 1.0 | 7.0 | 0.00 | 0.14 | 0.14 | 68 | 1014.9 |
| 20260905163039 | 84 | 231 | 1.0 | 5.0 | 0.00 | 0.14 | 0.14 | 67 | 1015.1 |
| 20260905161550 | 83 | 266 | 1.0 | 7.0 | 0.00 | 0.14 | 0.14 | 68 | 1015.1 |
| 20260905160034 | 82 | 229 | 3.0 | 7.0 | 0.00 | 0.14 | 0.14 | 68 | 1015.0 |
| 20260905154539 | 81 | 0 | 1.0 | 7.0 | 0.00 | 0.14 | 0.14 | 69 | 1015.1 |
| 20260905153037 | 80 | 214 | 1.0 | 6.0 | 0.00 | 0.14 | 0.14 | 69 | 1015.0 |
| 20260905151536 | 79 | 180 | 0.0 | 3.0 | 0.00 | 0.14 | 0.14 | 69 | 1015.2 |
| 20260905150038 | 78 | 205 | 1.0 | 8.0 | 0.00 | 0.14 | 0.14 | 69 | 1015.0 |
| 20260905144536 | 78 | 0 | 1.0 | 7.0 | 0.00 | 0.14 | 0.14 | 73 | 1014.9 |
| 20260905143037 | 77 | 232 | 1.0 | 7.0 | 0.00 | 0.14 | 0.14 | 75 | 1014.7 |
| 20260905141538 | 76 | 215 | 2.0 | 6.0 | 0.00 | 0.14 | 0.14 | 77 | 1015.0 |
| 20260905140038 | 75 | 0 | 0.0 | 5.0 | 0.00 | 0.14 | 0.14 | 80 | 1015.3 |
| 20260905134536 | 74 | 0 | 2.0 | 6.0 | 0.00 | 0.14 | 0.14 | 81 | 1015.9 |
| 20260905133039 | 72 | 0 | 0.0 | 3.0 | 0.00 | 0.14 | 0.14 | 88 | 1016.2 |
| 20260905131536 | 70 | 0 | 0.0 | 2.0 | 0.00 | 0.14 | 0.14 | 90 | 1016.5 |
| 20260905130037 | 69 | 0 | 0.0 | 3.0 | 0.00 | 0.14 | 0.14 | 92 | 1016.6 |
| 20260905124538 | 69 | 214 | 1.0 | 4.0 | 0.00 | 0.14 | 0.14 | 93 | 1016.6 |
| 20260905123035 | 68 | 233 | 2.0 | 5.0 | 0.00 | 0.14 | 0.14 | 93 | 1016.7 |
| 20260905121537 | 68 | 0 | 0.0 | 1.0 | 0.00 | 0.14 | 0.14 | 92 | 1016.2 |
| 20260905120038 | 68 | 0 | 0.0 | 5.0 | 0.08 | 0.14 | 0.14 | 91 | 1016.1 |
| 20260905114537 | 68 | 59 | 2.0 | 8.0 | 0.14 | 0.14 | 0.14 | 90 | 1016.3 |
| 20260905113038 | 68 | 67 | 4.0 | 10.0 | 0.14 | 0.14 | 0.14 | 90 | 1016.4 |
| 20260905111536 | 68 | 76 | 2.0 | 11.0 | 0.14 | 0.14 | 0.14 | 89 | 1016.4 |
| 20260905110037 | 70 | 87 | 11.0 | 22.0 | 0.05 | 0.05 | 0.05 | 84 | 1016.4 |
| 20260905104535 | 72 | 69 | 10.0 | 29.0 | 0.00 | 0.00 | 0.00 | 82 | 1016.3 |
| 20260905103038 | 73 | 36 | 9.0 | 30.0 | 0.00 | 0.00 | 0.00 | 90 | 1016.4 |
| 20260905101537 | 72 | 279 | 1.0 | 3.0 | 0.00 | 0.00 | 0.00 | 93 | 1014.4 |
| 20260905100108 | 72 | 279 | 0.0 | 1.0 | 0.00 | 0.00 | 0.00 | 93 | 1014.4 |
| 20260905094545 | 72 | 0 | 0.0 | 1.0 | 0.00 | 0.00 | 0.00 | 93 | 1014.3 |
| 20260905093038 | 72 | 0 | 0.0 | 1.0 | 0.00 | 0.00 | 0.00 | 92 | 1014.1 |
| 20260905091550 | 72 | 0 | 0.0 | 1.0 | 0.00 | 0.00 | 0.00 | 92 | 1013.9 |
| 20260905090036 | 73 | 0 | 0.0 | 0.0 | 0.00 | 0.00 | 0.00 | 92 | 1013.9 |
| 20260905084543 | 73 | 0 | 0.0 | 1.0 | 0.00 | 0.00 | 0.00 | 92 | 1014.1 |
| 20260905083051 | 73 | 0 | 0.0 | 0.0 | 0.00 | 0.00 | 0.00 | 92 | 1014.0 |
| 20260905081539 | 72 | 0 | 0.0 | 0.0 | 0.00 | 0.00 | 0.00 | 92 | 1014.0 |
| 20260905080035 | 72 | 0 | 0.0 | 0.0 | 0.00 | 0.00 | 0.00 | 92 | 1013.6 |
| 20260905074537 | 73 | 0 | 0.0 | 1.0 | 0.00 | 0.00 | 0.00 | 91 | 1013.4 |
| 20260905073039 | 73 | 0 | 0.0 | 1.0 | 0.00 | 0.00 | 0.00 | 91 | 1013.3 |
| 20260905071535 | 72 | 0 | 0.0 | 2.0 | 0.00 | 0.00 | 0.00 | 92 | 1013.4 |
| 20260905070039 | 72 | 280 | 0.0 | 2.0 | 0.00 | 0.00 | 0.00 | 92 | 1013.5 |